B55 EFTP-EFTU

Flight info

Callsign B55
Flight time 0h 17m
Altitude 14000
Route NEBAB DCT UVOPA
Aircraft HAWK/M-SDGIRY/C

Departure

Time 2026-04-27 19:14
Airport Tampere-Pirkkala Airport (EFTP)

Arrival

Time 2026-04-27 19:31
Airport Turku Airport (EFTU)
Time Latitude Longitude Altitude Speed Heading
2026-04-27 18:57 61.40777 23.61563 373 ft 0 kts 308°
2026-04-27 19:07 61.40782 23.61542 372 ft 2 kts 274°
2026-04-27 19:07 61.40759 23.61486 371 ft 5 kts 223°
2026-04-27 19:08 61.40741 23.61440 370 ft 3 kts 239°
2026-04-27 19:08 61.40728 23.61395 369 ft 4 kts 238°
2026-04-27 19:08 61.40711 23.61341 368 ft 4 kts 238°
2026-04-27 19:08 61.40712 23.61198 371 ft 20 kts 275°
2026-04-27 19:09 61.40723 23.60899 370 ft 22 kts 261°
2026-04-27 19:09 61.40703 23.60606 369 ft 20 kts 279°
2026-04-27 19:09 61.40753 23.60390 374 ft 13 kts 308°
2026-04-27 19:09 61.40819 23.60257 374 ft 15 kts 317°
2026-04-27 19:10 61.40895 23.60090 382 ft 16 kts 304°
2026-04-27 19:10 61.40952 23.59864 385 ft 20 kts 289°
2026-04-27 19:10 61.40978 23.59552 389 ft 24 kts 270°
2026-04-27 19:10 61.40981 23.59329 387 ft 20 kts 297°
2026-04-27 19:11 61.41032 23.59245 390 ft 6 kts 335°
2026-04-27 19:11 61.41041 23.59235 391 ft 0 kts 334°
2026-04-27 19:12 61.41042 23.59235 391 ft 2 kts 334°
2026-04-27 19:12 61.41070 23.59207 391 ft 3 kts 342°
2026-04-27 19:13 61.41112 23.59174 391 ft 7 kts
2026-04-27 19:13 61.41135 23.59212 391 ft 1 kts 68°
2026-04-27 19:13 61.41136 23.59216 391 ft 2 kts 62°
2026-04-27 19:13 61.41142 23.59248 391 ft 1 kts 63°
2026-04-27 19:14 61.41289 23.59887 387 ft 110 kts 65°
2026-04-27 19:14 61.41778 23.62063 734 ft 207 kts 60°
2026-04-27 19:14 61.42486 23.64689 1691 ft 201 kts 37°
2026-04-27 19:14 61.43512 23.63846 1857 ft 202 kts 295°
2026-04-27 19:15 61.43331 23.60808 1947 ft 231 kts 245°
2026-04-27 19:15 61.42064 23.58575 2056 ft 253 kts 208°
2026-04-27 19:15 61.40394 23.57117 2310 ft 266 kts 203°
2026-04-27 19:15 61.38644 23.55693 2648 ft 273 kts 204°
2026-04-27 19:16 61.36867 23.54169 2998 ft 278 kts 205°
2026-04-27 19:16 61.35679 23.53113 3254 ft 281 kts 205°
2026-04-27 19:16 61.33271 23.50922 3803 ft 283 kts 206°
2026-04-27 19:16 61.31475 23.49236 4237 ft 284 kts 207°
2026-04-27 19:17 61.29744 23.47231 4800 ft 290 kts 213°
2026-04-27 19:17 61.28030 23.45173 6247 ft 282 kts 210°
2026-04-27 19:17 61.26309 23.43309 8642 ft 279 kts 209°
2026-04-27 19:17 61.24598 23.41387 11063 ft 282 kts 211°
2026-04-27 19:18 61.22819 23.39330 12824 ft 312 kts 211°
2026-04-27 19:18 61.20749 23.36993 13539 ft 365 kts 210°
2026-04-27 19:18 61.18389 23.34373 13839 ft 395 kts 210°
2026-04-27 19:18 61.16051 23.31739 13954 ft 367 kts 210°
2026-04-27 19:19 61.13875 23.29283 13998 ft 351 kts 210°
2026-04-27 19:19 61.11720 23.26873 14020 ft 354 kts 210°
2026-04-27 19:19 61.09538 23.24435 14037 ft 359 kts 210°
2026-04-27 19:19 61.07331 23.21966 14039 ft 362 kts 210°
2026-04-27 19:20 61.05103 23.19481 14041 ft 365 kts 210°
2026-04-27 19:20 61.02894 23.17027 13778 ft 350 kts 210°
2026-04-27 19:20 61.00773 23.14667 12275 ft 344 kts 210°
2026-04-27 19:20 60.98684 23.12340 11080 ft 335 kts 210°
2026-04-27 19:21 60.96705 23.10151 10493 ft 310 kts 210°
2026-04-27 19:21 60.94886 23.08141 10239 ft 298 kts 210°
2026-04-27 19:21 60.93030 23.06078 10125 ft 309 kts 210°
2026-04-27 19:21 60.91107 23.03958 10078 ft 318 kts 210°
2026-04-27 19:22 60.89142 23.01800 10061 ft 323 kts 210°
2026-04-27 19:22 60.87181 22.99641 10056 ft 308 kts 210°
2026-04-27 19:22 60.85337 22.97613 9361 ft 298 kts 210°
2026-04-27 19:22 60.83525 22.95619 8394 ft 294 kts 210°
2026-04-27 19:23 60.81807 22.93736 7457 ft 292 kts 210°
2026-04-27 19:23 60.80022 22.91789 6505 ft 290 kts 210°
2026-04-27 19:23 60.78250 22.89864 5537 ft 287 kts 210°
2026-04-27 19:23 60.76494 22.87966 4589 ft 284 kts 210°
2026-04-27 19:24 60.74755 22.86097 3663 ft 281 kts 211°
2026-04-27 19:24 60.73032 22.84257 2876 ft 274 kts 211°
2026-04-27 19:24 60.71385 22.82517 2510 ft 261 kts 211°
2026-04-27 19:24 60.69828 22.80822 2355 ft 247 kts 214°
2026-04-27 19:25 60.68345 22.79033 2289 ft 250 kts 214°
2026-04-27 19:25 60.66795 22.77352 2265 ft 254 kts 210°
2026-04-27 19:25 60.65218 22.75716 2257 ft 255 kts 211°
2026-04-27 19:25 60.63657 22.74007 2251 ft 255 kts 212°
2026-04-27 19:26 60.62100 22.72289 2240 ft 253 kts 212°
2026-04-27 19:26 60.60557 22.70638 2234 ft 249 kts 211°
2026-04-27 19:26 60.59034 22.69001 2231 ft 246 kts 212°
2026-04-27 19:26 60.57531 22.67367 2253 ft 244 kts 212°
2026-04-27 19:27 60.56056 22.65770 2253 ft 231 kts 212°
2026-04-27 19:27 60.54771 22.64191 2248 ft 202 kts 228°
2026-04-27 19:27 60.53829 22.62170 2223 ft 190 kts 245°
2026-04-27 19:27 60.53275 22.59927 2215 ft 162 kts 260°
2026-04-27 19:28 60.52950 22.57970 2222 ft 134 kts 268°
2026-04-27 19:28 60.52733 22.55935 2230 ft 172 kts 271°
2026-04-27 19:28 60.52579 22.53491 2272 ft 175 kts 274°
2026-04-27 19:28 60.52475 22.51030 2251 ft 174 kts 276°
2026-04-27 19:29 60.52386 22.48650 2235 ft 165 kts 276°
2026-04-27 19:29 60.52298 22.46290 1999 ft 170 kts 276°
2026-04-27 19:29 60.52198 22.43880 1750 ft 170 kts 275°
2026-04-27 19:29 60.52087 22.41514 1481 ft 167 kts 274°
2026-04-27 19:30 60.51980 22.39195 1269 ft 164 kts 273°
2026-04-27 19:30 60.51884 22.36905 1022 ft 161 kts 271°
2026-04-27 19:30 60.51789 22.34696 775 ft 151 kts 271°
2026-04-27 19:30 60.51672 22.32644 537 ft 142 kts 270°
2026-04-27 19:31 60.51585 22.30706 405 ft 138 kts 272°
2026-04-27 19:31 60.51514 22.28726 203 ft 139 kts 272°
2026-04-27 19:31 60.51449 22.26953 144 ft 108 kts 267°
2026-04-27 19:31 60.51418 22.26181 146 ft 18 kts 265°
2026-04-27 19:32 60.51405 22.25962 147 ft 16 kts 264°
2026-04-27 19:32 60.51384 22.25613 149 ft 35 kts 264°
2026-04-27 19:32 60.51323 22.25292 146 ft 17 kts 214°
2026-04-27 19:32 60.51274 22.25257 145 ft 0 kts 179°
2026-04-27 19:33 60.51231 22.25293 145 ft 18 kts 138°
2026-04-27 19:33 60.51208 22.25561 150 ft 11 kts 82°
2026-04-27 19:33 60.51213 22.25687 152 ft 15 kts 85°
2026-04-27 19:34 60.51226 22.25998 153 ft 24 kts 86°
2026-04-27 19:34 60.51287 22.26356 147 ft 30 kts 66°
2026-04-27 19:34 60.51310 22.26769 145 ft 28 kts 85°
2026-04-27 19:34 60.51326 22.27134 148 ft 24 kts 86°
2026-04-27 19:35 60.51339 22.27442 152 ft 21 kts 85°
2026-04-27 19:35 60.51360 22.27862 149 ft 37 kts 83°
2026-04-27 19:35 60.51379 22.28315 142 ft 21 kts 90°
2026-04-27 19:35 60.51385 22.28477 142 ft 7 kts 84°
2026-04-27 19:36 60.51368 22.28556 142 ft 8 kts 153°
2026-04-27 19:36 60.51347 22.28566 141 ft 6 kts 167°
2026-04-27 19:36 60.51297 22.28725 146 ft 9 kts 82°
2026-04-27 19:36 60.51301 22.28806 147 ft 3 kts 76°
2026-04-27 19:37 60.51315 22.28833 147 ft 1 kts 352°